Lapse_Rate
8.0 7.2 6.6 6.1 5.8 5.8 5.7 5.9 5.4 4.8 4.8 4.7 4.6 4.6 4.7 5.3 5.7 5.8 6.3 6.4 6.4 6.6
6.4 5.8 5.6 5.7 5.9 5.7 5.6 5.1 5.1 5.3 5.0 4.6 4.4 4.6 4.8 5.4 5.8 5.9 6.4 6.7 6.7 6.5
5.8 5.7 5.8 5.9 6.2 6.5 6.1 5.5 5.6 4.3 4.6 4.9 5.0 5.2 5.5 5.9 6.0 6.0 6.3 6.6 7.0 7.6
5.2 5.7 6.3 6.3 6.2 6.2 5.7 5.6 5.2 5.2 5.3 5.3 5.6 6.0 6.5 6.9 7.0 6.5 6.9 7.1 6.9 7.3
5.0 5.4 5.7 6.0 5.6 5.9 5.5 5.5 5.6 5.8 6.2 6.2 6.2 6.4 6.4 6.5 6.7 6.9 7.0 7.3 7.4 7.4
4.4 4.7 5.2 5.4 5.6 5.3 5.7 5.7 5.7 5.8 5.8 6.3 6.5 6.7 6.8 6.9 6.9 6.9 7.2 7.4 7.4 7.5
4.8 5.0 6.2 5.5 4.7 4.5 4.6 5.3 5.5 5.9 6.4 6.8 7.2 7.0 7.3 7.4 7.4 7.7 8.0 7.9 7.6 7.8
5.3 5.9 5.2 4.9 4.8 4.8 4.7 4.7 5.6 5.8 6.4 6.7 7.2 7.2 7.6 8.0 8.0 8.0 8.9 9.5 9.4 9.2
6.5 5.4 5.0 5.0 4.7 4.8 5.1 5.4 4.5 5.2 5.1 5.9 6.7 7.3 7.3 7.5 7.6 8.1 8.7 8.3 9.0 9.3
7.0 6.5 6.3 6.1 5.2 4.7 4.9 5.5 5.4 4.5 5.4 5.2 6.2 7.0 7.4 7.5 8.2 8.3 8.8 8.8 9.0 9.2
7.7 7.7 7.0 6.3 5.8 5.7 5.6 4.9 4.9 5.5 5.3 5.5 5.9 6.7 6.9 7.3 8.3 8.2 8.5 9.1 9.1 9.0
6.7 5.9 6.4 7.2 8.1 7.9 6.8 6.5 6.1 6.1 5.6 4.8 4.8 5.8 6.6 7.2 7.6 8.5 9.0 9.3 9.4 9.3
6.4 6.6 7.4 7.6 7.2 7.4 7.3 6.5 6.6 6.5 6.2 5.7 4.9 5.8 6.6 7.9 8.7 8.4 9.1 9.2 9.3 9.6
6.3 5.9 6.4 6.0 6.5 6.2 6.2 6.6 6.3 6.1 6.2 5.8 5.6 5.2 6.5 7.3 8.4 8.3 8.8 9.0 9.0 9.2
Wind_Speed
10 7 8 8 7 6 6 5 9 7 5 4 3 2 1 2 2 3 2 2 2 2
10 10 9 10 8 6 7 8 9 7 5 5 4 3 2 1 2 2 3 3 3 3
9 9 9 9 9 8 7 8 9 8 8 6 5 5 4 3 3 3 3 3 4 4
8 9 8 7 8 8 10 10 8 8 8 7 6 7 5 4 4 5 5 4 5 5
9 8 8 8 8 10 9 10 9 9 7 7 7 8 6 5 5 5 5 5 5 5
10 9 6 7 7 6 7 8 7 7 6 6 6 6 6 6 6 6 6 6 6 6
8 10 7 7 7 7 5 5 5 6 6 5 6 6 6 6 6 7 6 6 6 6
11 9 8 8 6 6 6 4 4 5 6 6 6 6 6 7 6 6 7 6 6 9
11 11 9 7 6 6 5 5 4 4 4 4 5 9 10 10 6 7 7 7 8 9
11 10 9 8 7 5 4 4 4 4 5 6 7 11 13 11 7 7 7 8 8 8
9 8 6 6 5 6 5 4 4 5 5 6 7 12 11 11 8 7 9 9 9 8
7 6 6 7 7 5 5 5 5 5 6 6 6 11 11 9 7 8 9 9 10 9
6 5 5 5 4 4 4 5 5 6 5 8 6 11 13 11 6 8 7 9 10 18
4 3 3 2 3 3 4 5 4 5 6 6 7 8 15 16 8 7 7 8 7 7
Wind_Direction
147 150 145 146 145 148 152 151 150 157 159 150 146 131 46 341 322 323 306 314 321 322
155 148 146 141 142 146 145 149 156 161 164 167 166 178 174 240 251 265 284 281 258 262
138 140 140 139 139 141 140 152 159 166 175 178 189 196 200 209 229 246 245 263 276 271
147 148 136 139 143 152 161 169 167 176 179 183 193 201 212 224 226 242 253 237 249 262
131 130 143 150 151 156 168 169 173 178 185 189 199 206 211 222 228 245 251 257 255 253
135 132 134 143 150 151 164 166 169 179 190 200 206 215 224 232 237 244 252 254 255 258
142 140 157 154 156 159 157 169 179 196 204 209 220 225 231 237 244 248 248 245 248 254
152 141 150 157 159 155 161 183 204 203 211 221 222 230 233 235 242 254 257 245 238 240
155 154 157 157 159 161 172 180 181 217 215 244 248 246 242 247 245 244 240 246 258 258
157 159 164 163 162 171 178 194 195 195 229 233 248 251 248 252 254 255 254 256 258 262
152 156 154 176 191 192 194 198 220 231 226 241 246 252 258 262 264 266 267 269 274 270
139 153 182 193 201 200 197 218 217 234 239 237 251 263 265 269 271 271 271 270 269 266
160 172 181 192 205 223 231 234 249 255 249 249 258 272 271 264 255 263 267 265 260 263
135 144 167 201 238 248 264 273 280 281 278 268 260 262 268 264 258 257 264 265 260 255